Location: Roanoke
(37.2710°N, 79.9420°W)
Time: 23:07:33
(UTC-05:00)

Daily predictions for brighter satellites

Satellite Brightness Start Highest point End
(mag) Time Altitude Azimuth Time Altitude Azimuth Time Altitude Azimuth
IRAS Rocket 4.2 17:25:13 10° SSE 17:30:39 66° ENE 17:36:05 10° N
Cosmos 1818 3.6 17:25:38 10° SSW 17:31:02 82° ESE 17:36:30 10° NNE
CORIOLIS 4.5 17:25:57 10° SE 17:31:04 44° ENE 17:36:11 10° N
Cosmos 1300 Rocket 4.0 17:26:52 10° NNW 17:31:15 70° W 17:35:37 10° S
ATLAS 3B R/B 4.0 17:28:34 10° N 17:32:44 17° NE 17:36:47 10° ENE
Cosmos 1812 3.0 17:30:51 10° SSW 17:34:42 72° W 17:38:34 10° N
USA 215 3.6 17:30:53 10° SE 17:37:23 72° SW 17:43:56 10° NW
SMAP 3.1 17:32:57 10° SSE 17:37:29 57° ENE 17:42:03 10° N
COSMO-SKYMED 1 3.8 17:34:36 10° NE 17:38:04 23° E 17:41:31 10° SSE
Cosmos 1833 4.4 17:32:48 10° NNW 17:38:31 82° WSW 17:44:15 10° SSE
Delta 2 Rocket 4.3 17:33:37 10° WSW 17:39:03 60° SSE 17:43:58 10° E
ERS-2 3.6 17:40:21 10° ESE 17:42:43 17° ENE 17:45:05 10° NNE
Cosmos 389 Rocket 3.8 17:40:12 10° NNE 17:42:49 19° ENE 17:45:23 10° ESE
Cosmos 1943 Rocket 3.9 17:38:29 10° WSW 17:43:24 31° WNW 17:48:22 10° N
Aureole 1 Rocket 4.4 17:38:19 10° N 17:43:42 40° ENE 17:50:29 10° SE
Cosmos 1634 Rocket 4.0 17:38:06 10° S 17:44:17 89° E 17:50:33 10° N
CZ-2C R/B 4.0 17:39:46 10° NNE 17:44:19 50° E 17:48:54 10° S
Cosmos 1898 Rocket 3.5 17:39:38 10° SSW 17:44:48 81° ESE 17:50:03 10° NNE
ALOS 3.5 17:42:56 10° ESE 17:46:15 19° ENE 17:49:33 10° NNE
Cosmos 1655 Rocket 4.3 17:40:55 10° N 17:47:01 46° E 17:53:07 10° SSE
DELTA 2 R/B (1) 3.9 17:42:51 10° SW 17:48:18 59° SSE 17:53:20 12° ENE
Hubble Space Telescope 3.0 17:45:37 10° SSW 17:48:21 17° SSE 17:51:05 10° SE
Cosmos 1975 Rocket 3.1 17:44:06 10° S 17:48:29 62° E 17:52:54 10° NNE
IRS-1A Rocket 4.4 17:44:27 10° SE 17:49:52 50° ENE 17:55:14 10° N
Ariane Rocket 3.0 17:44:53 10° SSE 17:49:56 82° ENE 17:55:01 10° NNW
USA 116 3.4 17:47:40 10° NNE 17:50:53 49° E 17:53:54 10° S
Cosmos 2298 Rocket 4.1 17:46:07 10° S 17:51:19 61° ESE 17:56:34 10° NNE
Cosmos 1666 3.8 17:48:43 10° NNE 17:51:40 21° ENE 17:54:35 10° SE
Abrixas rocket 2.1 17:49:23 10° SW 17:52:37 74° SE 17:55:07 16° ENE
NOSS 2-3 (C) 4.0 17:51:01 10° SW 17:55:35 76° WNW 18:00:49 10° NNE
Okean 1 Rocket 3.8 17:51:42 10° NNW 17:56:07 60° W 18:00:31 10° S
MTI 4.3 17:56:28 10° NNE 17:59:32 38° E 18:02:35 10° S
CSL-04 Debris 4.3 17:54:23 10° S 17:59:46 79° WSW 18:05:11 10° NNW
SJ 16-02 3.1 17:58:07 10° ESE 18:00:13 13° E 18:00:16 13° E
Meteor 1-4 Rocket 3.7 17:57:40 10° NNW 18:01:14 47° W 18:04:42 10° S
Cosmos 1937 Rocket 3.5 17:59:06 10° SSW 18:04:18 87° ESE 18:09:30 10° NNE
Atlas Centaur 2 2.9 18:00:31 10° SW 18:04:42 29° S 18:08:02 11° ESE
ATLAS CENTAUR R/B 2.7 18:01:51 10° NW 18:05:41 44° WSW 18:09:46 10° S
EO 1 Del DPAF 3.6 18:06:52 12° NNE 18:10:08 41° E 18:13:44 10° S
Okean 1 3.8 18:07:00 10° SSW 18:10:55 61° W 18:14:51 10° N
Cosmos 2026 Rocket 4.3 18:09:36 10° N 18:15:59 74° W 18:22:16 10° S
Cosmos 1536 Rocket 4.1 18:12:37 10° SSE 18:16:37 35° E 18:19:11 19° NE
Cosmos 2266 Rocket 4.4 18:11:13 10° NNE 18:16:44 36° ENE 18:22:18 10° SE
CZ-4 R/B 1.8 18:16:28 10° S 18:20:15 60° W 18:24:05 10° NNW
Cosmos 1743 2.6 18:17:45 10° N 18:21:37 64° E 18:25:26 10° SSE
Cosmos 1975 3.1 18:19:08 10° NNW 18:23:09 71° W 18:27:10 10° S
USA 238 DEB 4.3 18:19:17 10° NNW 18:25:44 35° NE 18:29:39 21° E
USA 238 4.3 18:19:24 10° NNW 18:25:49 35° NE 18:29:40 21° E
SKYMED 2 3.5 18:21:56 10° NNE 18:26:17 84° ESE 18:30:37 10° SSW
Cosmos 1697 Rocket 4.1 18:25:43 10° SE 18:28:49 19° ESE 18:28:49 19° ESE
Lacrosse 5 4.0 18:27:03 10° WNW 18:31:18 27° WSW 18:35:32 10° S
PSLV R/B 4.2 18:29:30 10° SSW 18:32:15 29° SSE 18:32:24 29° SE
FENGYUN 3A 3.6 18:29:47 10° SSE 18:35:05 61° ENE 18:40:23 10° N
MONITOR-E 4.0 18:34:58 10° S 18:38:00 86° W 18:41:03 10° NNW
Cosmos 372 Rocket 4.3 18:36:37 10° S 18:41:33 43° ESE 18:42:41 38° ENE
SPOT 3 Rocket 3.4 18:36:54 10° SSE 18:42:04 75° ENE 18:47:15 10° N
H-2A R/B 3.8 18:41:09 10° SSE 18:41:24 11° SSE 18:41:24 11° SSE
Cosmos 1932 4.4 18:36:28 10° NNW 18:42:52 89° ENE 18:49:06 10° SSE
Cosmos 2219 3.4 18:40:28 10° NNW 18:46:03 71° WSW 18:51:38 10° SSE
Cosmos 1271 Rocket 2.9 18:42:47 10° NNW 18:46:33 70° W 18:50:20 10° S
Cosmos 2227 Rocket 2.4 18:42:23 10° N 18:47:47 44° ENE 18:48:56 39° E
DMSP B5D1-3 4.4 18:46:42 15° NNE 18:50:59 86° ESE 18:56:06 10° SSW
Meteor 1-13 Rocket 4.4 18:45:34 10° SSW 18:51:04 73° W 18:56:43 10° N
Meteor 2-9 Rocket 4.0 18:50:59 10° N 18:56:34 81° E 19:01:58 10° S
Cosmos 1455 Rocket 3.7 18:53:55 10° NNW 18:58:16 56° W 19:02:33 10° S
NOSS 3-2 (A) 4.5 18:51:49 10° NNW 18:58:40 36° NE 18:59:15 36° ENE
YAOGAN 1 4.4 18:56:21 10° SSW 19:00:11 31° W 19:04:04 10° NW
Thor Agena Rocket 3.7 19:01:21 51° ESE 19:01:21 51° ESE 19:06:17 10° S
NOAA 12 4.2 18:57:29 10° S 19:02:46 74° WSW 19:08:02 10° NNW
Meteor 1-15 Rocket 4.3 19:00:39 10° N 19:06:29 56° ENE 19:12:16 10° SSE
ATLAS 2AS CENTAUR R/B 3.5 18:59:22 10° SW 19:06:58 59° NW 19:12:51 20° NNE
Cosmos 1980 Rocket 4.3 19:03:17 10° SSE 19:03:41 12° SSE 19:03:41 12° SSE
Meteor 2-4 Rocket 4.1 19:07:11 10° SSW 19:12:39 60° W 19:17:10 15° N
Cosmos 2297 Rocket 2.4 19:10:00 10° NNW 19:14:38 54° NNE 19:14:38 54° NNE
ERS-2 4.2 19:13:00 10° SSW 19:16:09 27° W 19:19:19 10° NW
Gbstr 26 Del rocket 4.4 19:13:40 10° SSW 19:21:26 57° SE 19:22:08 55° ESE
Delta 2 Rocket 3.9 19:16:27 10° W 19:21:15 69° SW 19:21:15 69° SW
ALOS 3.6 19:19:02 10° SSW 19:23:22 38° W 19:27:44 10° NNW
ATLAS 3B R/B 2.4 19:17:54 10° NNW 19:24:33 77° ENE 19:25:15 69° ESE
Cosmos 158 Rocket 4.1 19:21:36 10° NNW 19:25:59 63° NW 19:25:59 63° NW
NOSS 3-4 (A) 3.9 19:21:56 10° SSW 19:26:38 46° SSE 19:26:38 46° SSE
NOSS 3-4 (C) 3.9 19:22:02 10° SSW 19:26:41 45° SSE 19:26:41 45° SSE
Nadezhda 2 Rocket 4.3 19:21:46 10° N 19:28:05 80° E 19:34:27 10° S
Hubble Space Telescope 2.9 19:25:38 10° SW 19:27:52 21° SSW 19:27:52 21° SSW
DELTA 2 R/B (1) 3.8 19:29:10 10° W 19:34:06 65° WNW 19:34:06 65° WNW
Cosmos 2369 4.1 19:31:27 10° SW 19:37:02 59° WNW 19:37:45 55° NNW
SJ 16-02 2.6 19:34:08 10° SW 19:37:21 38° WSW 19:37:21 38° WSW
Cosmos 1125 Rocket 4.2 19:33:14 10° SW 19:38:23 50° WNW 19:39:01 48° NW
Cosmos 2278 4.1 19:34:28 10° SW 19:40:03 59° WNW 19:40:31 57° NW
Cosmos 1656 4.3 19:45:34 10° SW 19:50:41 51° WNW 19:50:41 51° WNW
Atlas Centaur 2 4.0 19:49:27 10° WSW 19:50:40 16° WSW 19:50:40 16° WSW
Cosmos 1697 Rocket 4.2 20:07:37 10° SW 20:10:38 31° WSW 20:10:38 31° WSW
USA 238 DEB 4.5 20:10:03 10° NW 20:16:52 49° WSW 20:17:14 49° SW
USA 238 4.4 20:10:09 10° NW 20:16:58 50° WSW 20:17:14 49° WSW
Cosmos 2227 Rocket 4.3 20:27:08 10° NW 20:30:57 23° W 20:30:57 23° W
